RH
99 99 86 57 43 47 46 42 47 52 54 58 68 81 78 70 66 44 23 30 38 46 64 64 52 52 50 41 33 29 29 27 24 22 20 17 16 18 19 19 20 20 19 20 18 21 25 22 21 26 26 27 22 16 19 20 21 34 42 35 39 57 56 39 41 53 43 28 25 23 19 22 27 32 38 36 38 57 66 67 72 56 40 56 61 52 64
100 100 85 58 48 53 50 46 44 42 53 70 79 83 77 71 73 56 33 30 35 49 70 70 64 63 49 33 31 28 24 23 23 21 20 18 19 22 21 20 21 20 19 21 21 22 27 28 25 24 25 24 19 17 22 25 28 36 44 41 35 41 47 49 58 66 55 44 43 37 28 28 31 31 36 32 31 51 57 53 65 57 39 56 65 55 62
99 100 84 58 51 57 55 50 45 34 39 56 71 82 82 76 78 72 49 35 40 59 70 65 64 65 50 39 38 31 23 23 21 20 21 21 23 27 25 22 23 25 25 26 25 23 25 32 35 32 30 24 17 20 24 24 29 39 48 52 46 44 59 79 82 64 51 57 57 42 29 31 36 32 31 35 37 43 45 47 63 57 40 56 72 65 64
98 97 81 58 53 59 58 53 46 31 26 44 66 77 77 74 76 76 66 55 56 62 58 48 48 52 47 43 41 37 34 30 23 22 27 25 25 30 31 29 33 37 35 34 37 37 32 37 47 47 42 34 24 25 30 29 34 44 49 53 56 55 59 78 90 75 61 63 56 36 25 28 34 30 29 41 47 47 50 55 63 61 47 51 64 65 58
98 96 81 66 60 60 60 58 50 33 20 33 56 63 65 72 77 77 75 72 70 64 55 50 49 48 47 43 42 44 43 38 31 27 27 27 30 36 35 35 43 48 46 47 54 56 49 49 56 54 50 44 31 26 29 35 42 42 39 47 60 60 49 51 67 64 51 45 37 28 27 26 27 29 34 47 54 52 49 44 47 57 53 49 58 63 52
97 95 86 76 68 61 60 61 54 39 26 28 45 56 63 72 76 74 73 80 89 80 63 58 54 48 48 45 43 47 48 45 41 34 30 30 35 44 46 40 42 46 49 54 61 65 64 63 61 54 50 52 48 38 30 32 40 38 36 48 62 62 49 38 41 45 42 39 34 33 34 32 33 39 41 45 51 50 44 37 42 53 54 52 55 55 50
98 97 93 84 70 59 60 63 58 49 35 29 42 57 65 72 78 78 73 80 97 90 69 62 54 46 51 52 44 45 51 50 44 38 43 44 39 47 56 47 40 41 46 55 63 66 69 69 62 52 50 55 55 50 42 36 36 37 38 45 56 61 52 42 48 54 47 41 39 38 41 41 42 45 46 46 48 50 45 41 48 55 59 65 63 55 51
96 95 97 90 72 59 59 62 63 56 38 35 49 59 62 68 73 79 81 80 83 76 60 56 51 44 51 54 43 40 47 50 44 38 46 54 49 49 56 49 40 40 44 51 58 57 56 59 57 51 51 55 50 46 46 39 33 38 41 41 51 59 47 49 71 73 55 48 47 44 47 48 46 49 57 58 53 52 52 54 60 62 59 62 64 58 53
93 93 97 96 80 62 56 59 65 62 49 55 69 64 58 60 58 67 83 79 69 62 50 47 52 51 53 51 42 40 42 44 47 43 40 45 50 53 57 53 43 42 44 48 50 48 45 48 48 44 45 48 43 39 40 36 32 39 42 40 54 64 51 53 75 74 57 52 52 51 54 57 58 61 62 60 54 52 56 60 63 62 57 60 65 62 59
93 94 98 100 85 63 54 56 63 66 64 77 90 77 64 65 62 67 80 73 60 57 47 45 56 59 54 47 39 40 40 37 48 57 46 37 41 47 51 51 48 47 46 44 42 40 40 39 37 35 35 35 33 31 31 30 27 32 40 44 56 68 62 60 72 74 62 55 55 61 64 64 69 71 63 58 56 57 61 64 65 65 65 68 66 57 55
97 96 97 100 87 63 52 54 59 64 71 84 95 86 73 73 75 80 85 72 58 55 51 51 58 56 49 43 38 41 44 39 46 58 52 41 42 43 42 50 59 54 40 35 36 35 33 33 30 30 32 32 33 32 29 30 27 25 36 44 49 62 67 64 70 70 59 57 65 68 66 63 68 74 70 62 57 60 68 71 69 69 67 65 62 55 53
100 100 98 100 91 67 50 51 55 60 66 73 79 80 73 71 77 87 89 75 58 55 56 53 53 52 46 43 42 45 47 45 47 52 49 43 44 42 38 45 56 50 34 31 35 33 31 33 32 32 31 28 30 30 28 32 32 24 29 40 46 55 57 56 67 73 65 64 71 71 64 63 66 67 65 62 58 58 64 65 64 67 66 61 60 58 56
99 101 100 99 96 76 53 48 51 55 60 63 64 69 69 67 75 87 92 83 65 57 58 53 47 47 46 46 47 46 45 47 49 50 50 44 39 37 35 34 36 33 29 30 33 36 44 51 50 47 43 38 38 36 29 30 33 26 26 37 48 57 58 53 58 70 68 60 66 74 68 61 69 73 66 65 69 67 67 67 64 65 67 62 58 59 58
99 100 100 98 98 84 61 47 46 48 55 58 58 64 67 68 74 83 89 89 72 54 54 58 55 51 49 50 52 49 47 51 51 49 49 43 37 34 31 28 25 25 28 34 42 51 59 64 65 65 61 56 56 53 41 30 29 28 25 29 37 50 61 56 48 59 73 66 63 72 66 55 69 81 71 64 67 66 72 76 65 59 63 60 54 57 59
98 100 100 99 98 89 67 52 46 44 49 54 54 60 65 65 68 73 79 90 84 62 53 59 61 56 50 50 54 56 60 64 63 58 51 42 37 35 31 29 29 26 27 34 44 53 59 62 64 67 67 60 54 53 45 30 25 29 30 31 34 39 48 50 43 55 78 82 71 67 65 64 75 80 70 64 62 60 71 80 69 59 61 59 54 56 60
99 100 100 99 99 90 69 55 51 47 50 55 55 59 62 57 55 61 72 88 89 67 48 48 52 51 50 51 55 58 63 68 71 72 68 56 44 37 34 32 31 29 31 36 42 51 60 62 58 61 67 59 46 45 45 39 36 34 33 36 40 45 56 63 59 58 69 79 76 71 73 78 81 78 69 65 64 62 67 78 73 58 55 58 55 54 57
99 100 100 99 99 89 68 55 55 55 55 57 59 62 61 55 51 54 65 81 78 55 38 40 47 52 57 60 58 57 62 68 69 73 75 65 50 42 41 36 32 33 39 47 56 63 67 63 60 64 64 48 42 51 56 55 56 48 40 44 50 59 72 76 71 67 68 74 78 81 85 81 73 72 69 62 60 60 64 75 73 57 53 58 54 51 55
99 101 100 99 98 87 65 52 54 59 58 56 58 60 57 54 52 49 61 79 75 50 33 34 43 50 52 53 54 56 60 68 73 78 83 75 58 50 48 42 39 41 44 54 68 72 70 62 56 61 58 44 47 63 61 57 61 52 42 52 64 72 79 77 70 71 72 74 80 89 93 80 66 66 67 57 57 62 69 77 74 60 55 55 50 49 53
99 100 99 99 99 85 61 48 52 60 61 57 57 56 52 50 50 50 62 79 78 60 41 32 35 42 42 43 51 56 56 62 73 84 91 84 63 52 52 50 47 48 53 67 76 70 68 66 54 54 60 52 51 61 58 52 53 45 42 56 68 75 83 83 76 74 75 78 86 93 92 79 69 67 60 55 69 81 77 69 61 53 50 49 48 50 51
99 98 97 99 100 83 55 42 49 59 62 61 60 59 53 47 46 51 59 71 81 78 59 38 30 35 39 42 50 57 58 62 70 78 83 76 63 66 77 73 62 58 64 78 82 68 65 70 62 55 58 52 47 58 64 59 49 39 44 58 63 68 82 83 73 71 77 82 88 94 90 75 68 68 59 57 73 79 65 54 50 47 46 47 49 50 49
99 99 96 96 99 83 51 38 47 56 60 61 62 62 58 47 42 46 51 60 76 77 58 38 29 29 33 36 38 44 51 54 59 65 69 68 69 79 85 74 63 62 62 70 78 69 62 66 62 54 53 52 51 57 64 68 58 40 41 56 59 60 71 73 66 68 81 89 89 90 82 63 54 59 58 54 57 54 48 48 49 47 47 48 49 51 52
99 100 95 95 98 82 48 35 45 53 57 62 63 65 66 55 44 44 47 52 64 63 47 38 34 28 28 29 27 29 37 41 41 44 55 68 73 72 70 65 60 56 55 64 75 73 66 64 59 55 55 56 56 55 60 70 66 46 45 61 62 51 51 57 60 61 67 74 75 69 61 50 45 50 52 50 49 48 49 52 49 46 48 48 49 52 54
99 98 96 96 96 79 49 37 44 51 56 63 64 66 71 64 48 42 42 48 61 59 40 31 33 30 29 30 27 24 28 32 31 31 42 62 71 68 66 63 57 56 60 65 65 64 63 61 59 63 63 57 58 64 67 69 64 53 54 60 50 40 44 54 57 55 53 55 55 49 46 48 49 50 50 49 49 51 53 54 52 50 50 51 52 54 56
98 97 96 95 87 69 48 39 46 52 55 62 65 67 71 65 50 43 46 58 76 75 53 43 44 36 29 29 27 26 28 28 27 27 31 42 57 69 68 56 52 61 67 61 56 60 64 61 61 69 67 56 61 70 67 64 63 61 67 68 52 43 52 57 56 58 61 59 54 49 48 51 53 54 53 51 53 55 56 57 58 57 58 60 61 59 60
99 97 92 84 73 59 46 43 51 53 53 58 63 66 70 63 48 46 56 68 80 79 71 70 60 35 22 24 22 21 26 25 23 29 30 27 36 52 53 43 43 49 52 55 62 68 67 62 63 68 64 56 62 68 62 62 67 64 67 71 60 52 56 57 55 62 66 61 58 57 55 54 55 57 55 54 57 62 63 64 64 64 65 66 65 63 66
85 88 82 72 64 54 46 47 53 55 56 60 60 63 70 61 42 43 60 71 73 70 74 82 69 40 29 32 23 18 24 23 21 27 29 25 29 35 35 37 42 43 49 64 68 63 64 67 65 66 65 57 56 60 56 54 59 58 56 56 56 56 58 56 57 67 72 68 63 62 60 58 57 57 58 60 62 65 67 68 67 68 69 71 69 67 67
66 72 72 66 62 56 47 47 51 54 58 62 60 62 70 61 41 40 57 71 76 77 81 88 79 55 43 38 27 19 21 21 21 25 25 26 30 29 28 36 46 50 59 72 73 69 72 72 65 67 69 61 55 60 57 48 50 56 57 58 62 65 61 60 67 74 75 71 69 68 67 66 63 60 61 63 65 65 67 68 69 71 74 77 77 74 70
70 70 70 64 59 57 51 45 45 49 55 60 61 63 69 63 46 39 48 63 75 80 82 87 81 62 46 37 26 19 19 21 21 22 23 25 27 28 29 36 47 55 59 63 68 69 65 63 66 68 65 61 64 66 63 61 65 66 60 58 59 57 54 62 74 75 67 63 67 71 72 72 70 68 66 66 67 68 68 69 73 77 78 80 82 82 80
84 84 83 71 59 57 55 47 42 44 52 58 61 64 70 68 54 40 40 53 68 77 82 86 79 61 47 38 26 19 20 22 21 21 22 23 25 28 30 35 49 63 62 54 56 59 55 59 67 64 54 58 66 62 57 63 68 62 52 50 52 53 53 59 68 70 63 58 59 63 63 63 65 67 67 67 68 70 73 77 81 82 81 79 82 83 84
89 87 83 70 58 57 56 49 41 43 50 56 61 72 79 72 57 46 41 44 57 71 82 84 78 67 57 45 30 21 20 21 21 23 23 22 24 25 26 33 48 57 53 49 53 57 56 57 60 58 54 57 61 58 55 59 58 50 46 50 54 56 57 59 62 64 60 55 57 59 59 61 64 67 69 70 70 71 76 82 83 82 79 77 79 81 80
80 73 65 58 56 56 54 49 45 46 51 53 61 75 78 64 53 51 44 40 50 68 81 84 81 75 67 50 31 22 19 18 20 23 22 21 26 26 22 26 37 44 49 53 53 51 51 49 48 49 50 56 65 66 59 57 57 50 46 51 55 56 58 62 65 65 62 62 67 70 71 75 75 73 74 77 75 73 78 80 76 74 74 73 73 75 74
63 59 54 51 52 52 51 51 49 49 52 56 61 68 66 57 54 53 42 37 50 68 80 84 80 69 60 50 36 23 20 22 26 29 29 30 32 31 27 27 31 41 56 57 46 46 56 54 46 47 53 62 73 66 50 52 62 57 49 53 56 56 61 66 69 70 70 70 75 79 82 85 80 72 74 78 76 73 77 76 70 67 68 69 68 69 71
54 52 52 52 51 49 49 52 52 51 53 57 61 63 60 57 56 48 37 40 57 69 73 76 73 61 51 48 41 28 26 38 46 44 43 43 35 30 39 44 38 38 52 54 46 53 65 58 46 49 58 63 64 56 48 57 66 59 54 58 57 57 67 73 73 75 73 70 72 74 74 76 74 69 72 76 74 72 72 69 67 68 69 69 69 72 75
51 51 54 56 52 48 49 52 51 52 54 57 63 67 62 54 46 36 34 46 64 73 69 63 61 60 58 61 58 38 26 38 51 50 54 54 36 26 42 54 44 39 51 57 51 53 60 57 50 54 62 62 56 51 51 58 59 55 57 62 62 67 76 77 74 74 72 71 75 75 71 72 75 75 76 77 73 70 68 67 68 71 72 71 73 76 80
52 54 59 59 52 49 52 52 51 54 59 61 63 61 52 44 38 35 43 56 69 80 78 64 57 61 66 74 73 50 32 41 52 50 52 53 41 36 46 50 45 46 51 50 46 46 50 53 53 58 64 59 51 52 56 55 55 59 61 61 64 71 74 70 68 70 73 77 82 81 79 81 81 79 80 80 73 69 72 72 70 73 76 78 80 82 85
58 59 60 56 51 54 59 60 61 64 65 62 54 44 39 40 38 39 52 61 67 79 85 73 65 66 64 64 64 49 42 55 60 50 49 52 50 51 52 44 48 60 56 47 49 52 51 53 52 51 51 46 47 63 70 59 55 64 65 60 65 69 65 62 67 74 79 84 85 83 83 85 81 77 79 79 74 74 80 81 78 81 86 88 90 91 90
66 63 59 56 61 71 73 69 66 65 60 55 48 42 44 50 51 57 68 68 66 75 78 70 74 78 64 58 61 51 43 54 57 49 52 54 48 49 50 43 51 62 52 45 54 55 49 51 49 43 49 58 62 70 70 57 55 66 67 64 71 74 68 69 78 83 84 84 83 82 82 80 77 78 80 79 79 82 86 86 84 86 91 93 94 94 91
64 58 56 61 74 84 78 67 64 65 60 55 53 56 62 65 65 74 81 76 76 84 78 69 82 85 61 51 61 55 45 53 60 57 61 58 46 49 57 54 52 52 45 49 61 54 43 48 48 43 55 68 64 59 61 59 61 68 67 67 74 77 75 78 85 88 88 87 86 88 87 81 80 82 82 81 83 86 87 87 85 86 88 88 86 86 85
56 54 57 67 77 80 70 60 59 61 57 54 57 65 71 67 63 68 73 70 74 82 79 76 86 80 56 51 62 54 43 52 62 62 65 61 50 50 55 51 46 44 44 53 60 50 42 52 56 50 54 58 50 48 57 62 62 66 68 70 73 75 78 84 85 84 86 87 88 90 90 85 84 85 84 85 87 87 86 86 85 83 82 78 76 79 81
61 69 75 79 78 71 62 58 59 60 59 59 62 62 59 58 60 61 59 57 60 65 70 75 75 63 53 61 68 54 41 50 62 62 60 60 55 49 45 45 44 42 43 53 58 50 47 52 50 47 55 61 55 52 57 62 65 66 68 71 72 71 72 77 76 73 76 80 79 78 77 76 78 81 83 87 90 89 89 88 83 77 75 73 73 76 75
84 90 91 88 82 75 70 68 66 63 61 60 61 59 58 61 64 54 46 50 55 54 55 60 56 48 49 58 62 56 48 52 61 61 58 62 62 51 44 49 48 41 46 58 56 48 48 48 45 53 69 71 62 56 58 62 66 65 65 71 74 69 67 71 70 67 71 78 78 74 71 70 72 74 76 78 81 82 84 82 75 70 70 69 67 66 64
90 93 93 94 92 88 84 79 72 69 64 60 60 63 61 61 61 53 48 54 55 46 44 48 50 51 53 51 52 54 49 44 50 57 58 63 64 51 44 50 48 43 57 70 56 43 45 45 48 68 82 71 57 58 60 60 63 66 69 74 73 67 69 76 74 67 67 71 74 74 72 71 71 73 73 73 73 73 73 71 69 67 65 62 60 59 58
82 87 93 100 97 87 80 73 65 63 66 65 65 65 60 57 60 57 52 53 51 43 40 43 44 47 51 49 48 49 42 37 48 58 58 59 57 46 41 48 50 52 65 66 49 45 54 54 57 77 84 66 54 58 58 56 62 68 70 72 70 64 66 72 72 68 67 68 70 72 73 72 72 73 74 74 75 75 74 71 70 69 65 61 59 57 53
78 81 88 97 93 79 71 66 58 58 64 67 65 65 65 68 72 67 57 55 55 48 46 51 53 52 51 52 53 53 46 44 55 62 57 54 53 47 46 57 63 62 60 55 48 53 62 63 69 81 76 60 54 57 58 61 67 68 68 71 71 66 65 70 71 70 69 70 72 73 73 73 74 73 72 71 71 71 71 67 63 61 60 56 53 51 48
84 86 86 86 82 70 62 59 58 61 67 68 66 66 65 66 69 67 59 55 52 46 47 59 67 63 56 55 57 59 57 56 61 62 55 54 57 56 56 63 64 55 51 54 58 58 59 67 78 77 63 54 56 56 56 64 71 71 72 77 77 74 75 78 78 76 75 75 76 75 73 73 74 72 68 64 60 59 58 54 48 46 46 46 46 47 47
90 87 76 74 75 69 60 60 64 65 64 61 60 62 60 56 55 54 51 50 51 50 50 55 61 65 63 58 56 59 60 58 58 58 55 56 61 61 58 59 59 55 57 64 67 62 65 81 89 76 60 57 59 55 55 63 69 72 77 82 82 80 78 76 77 78 75 72 72 70 68 70 71 68 62 57 53 51 50 46 41 41 42 42 44 46 46
85 76 69 78 84 72 62 66 73 68 60 56 55 54 54 54 52 48 48 50 53 53 52 55 62 70 69 60 57 64 66 57 52 56 59 59 60 58 54 54 59 62 64 68 73 76 82 89 89 79 68 62 59 55 56 60 63 68 76 82 85 82 77 75 78 79 73 70 71 69 65 66 68 65 59 54 49 46 44 42 40 42 42 42 43 43 42
84 75 77 90 90 74 66 74 76 66 58 59 60 59 59 59 56 54 55 55 54 53 56 60 66 71 70 64 63 69 68 59 56 59 60 60 63 65 65 66 68 66 61 62 73 85 88 80 76 76 73 64 59 60 60 58 58 64 73 81 86 83 77 75 77 76 71 70 71 68 64 65 66 64 60 55 47 41 41 41 41 42 42 42 43 42 40
83 79 82 87 83 75 75 78 76 70 66 67 68 69 67 64 62 60 59 58 57 58 62 66 69 72 71 63 59 60 62 62 60 57 56 60 69 75 77 76 76 75 72 69 72 80 81 73 69 71 69 63 64 67 65 60 61 64 70 78 82 79 73 71 71 69 67 69 69 65 62 62 62 62 63 60 50 41 39 40 41 42 43 43 42 40 38
78 80 86 87 84 84 82 77 75 78 80 77 75 73 69 66 65 61 57 59 61 62 64 70 75 74 67 62 62 66 67 64 59 57 60 65 68 69 71 72 73 79 86 82 72 70 74 76 76 74 66 61 64 68 66 63 62 57 56 64 73 72 68 66 64 62 63 65 63 61 60 60 59 61 64 61 52 43 38 38 39 41 42 42 42 40 37
79 83 90 89 84 83 82 79 80 84 83 79 76 70 64 65 67 61 54 56 61 63 64 67 68 67 68 72 76 75 67 59 58 62 68 68 64 62 68 75 78 82 85 79 66 63 69 75 80 78 69 61 64 67 64 61 56 46 40 51 66 70 67 65 63 62 62 61 58 59 60 59 58 60 60 56 48 41 36 35 38 41 41 41 41 40 38
87 89 92 90 85 82 82 84 87 87 83 79 76 67 60 63 67 61 52 50 57 67 72 69 64 68 76 79 75 70 68 68 69 69 67 64 59 56 62 74 81 81 78 73 69 68 69 71 76 78 70 62 61 61 57 56 56 49 44 53 67 71 67 66 66 64 62 60 58 58 59 58 57 59 61 59 55 50 42 37 36 40 42 41 39 39 39
Wind_Speed
32 31 33 39 42 41 42 41 37 37 38 32 23 14 2 1 3 10 17 19 3 6 3 2 1 1 4 3 4 5 4 6 7 7 6 5 4 3 2 1 1 2 2 1 3 3 1 2 1 4 3 1 4 3 3 5 5 4 2 2 1 2 4 3 2 4 4 5 2 4 5 6 5 3 3 4 2 2 5 5 4 2 1 1 3 1 4
31 31 34 39 41 41 42 42 35 32 34 30 18 7 1 2 4 7 15 21 7 4 1 2 2 3 3 3 4 4 4 7 7 6 5 5 3 2 1 3 2 2 3 3 3 3 2 3 5 4 4 1 4 4 4 5 4 2 3 3 1 1 1 3 3 4 5 6 5 5 6 5 3 3 4 5 4 4 3 1 3 3 2 4 5 2 4
31 31 34 39 41 41 42 42 36 29 30 27 13 1 2 3 2 4 11 18 9 3 2 3 2 3 3 3 4 4 3 5 6 4 2 4 3 2 3 5 4 4 4 4 4 5 3 2 5 5 2 2 1 1 4 6 5 2 3 4 4 3 2 3 5 3 1 1 2 2 3 3 2 3 5 5 6 6 3 2 4 2 2 3 5 4 4
31 32 35 39 40 41 41 41 37 30 28 23 10 2 2 2 3 3 6 9 7 0 1 3 3 2 1 2 4 2 2 4 4 2 2 4 5 6 6 6 6 6 5 5 6 7 5 3 4 5 5 4 4 4 6 8 6 6 7 6 4 4 2 3 6 6 5 5 4 3 1 2 3 5 7 5 4 4 5 4 2 2 2 2 2 5 3
30 32 35 38 39 39 41 41 37 32 28 19 5 2 4 2 2 4 3 4 4 4 4 6 5 4 1 1 3 4 3 4 5 5 4 5 5 5 8 9 6 4 4 5 5 7 5 6 5 4 5 3 4 5 6 7 6 7 7 4 4 5 2 1 5 5 4 5 3 2 2 3 3 5 6 5 4 5 7 4 0 2 4 2 4 2 6
30 31 34 36 37 38 40 40 38 33 30 23 10 2 4 3 0 3 2 2 3 3 6 7 6 6 4 3 4 8 8 6 6 5 4 8 8 4 6 11 10 8 5 5 4 6 5 7 5 4 5 4 5 6 6 7 7 5 4 4 4 6 1 1 3 3 2 2 2 4 5 4 3 4 4 4 4 6 6 2 1 4 5 3 5 3 6
30 31 33 35 36 38 38 39 39 32 29 31 22 6 3 3 2 3 3 2 1 3 7 7 4 8 7 4 6 9 9 8 8 6 4 7 9 6 6 8 10 12 9 6 4 5 4 4 4 5 6 5 4 5 4 6 7 5 5 4 3 4 1 1 3 4 3 4 5 7 7 5 4 3 1 0 3 6 5 2 2 6 5 2 3 8 7
31 31 32 33 35 38 37 38 39 34 30 32 23 9 4 2 1 4 3 2 2 3 6 5 4 8 8 5 6 7 8 8 7 9 8 4 5 6 6 6 8 10 11 9 6 3 2 1 1 2 5 5 3 3 2 3 6 6 4 3 3 4 1 1 4 4 3 4 5 7 7 6 5 4 4 1 3 4 4 2 3 6 5 3 7 10 6
31 31 32 31 32 36 36 36 37 34 32 26 13 7 9 3 3 3 1 2 5 4 5 5 4 6 7 6 6 6 7 7 5 7 9 6 5 3 4 5 6 8 11 11 6 3 2 2 4 3 2 2 2 2 1 2 5 5 3 2 3 3 1 1 5 4 3 3 5 5 5 7 6 6 8 6 5 5 4 3 4 3 5 4 8 7 1
30 31 32 31 31 33 34 35 35 33 31 23 8 7 14 9 3 3 1 2 6 4 4 7 5 4 6 7 7 6 6 7 5 4 6 7 7 4 4 5 5 6 9 8 4 5 4 5 6 5 4 4 4 4 4 3 2 2 1 2 1 3 4 1 4 3 4 3 4 5 5 7 4 4 5 5 2 7 7 6 7 4 5 5 4 2 3
30 31 32 31 30 32 32 32 33 32 30 24 10 8 16 12 4 3 3 4 6 5 4 7 6 4 8 10 9 9 9 9 7 4 3 5 5 5 5 6 5 4 3 3 5 6 5 6 6 4 3 5 5 4 5 6 4 3 2 2 0 2 5 3 2 3 3 4 3 5 4 2 3 5 4 2 6 12 11 7 8 8 5 5 4 2 2
30 30 31 31 30 31 30 29 30 29 27 23 15 13 19 15 5 2 4 4 4 5 4 5 5 5 9 11 10 10 10 9 8 4 2 3 5 5 5 6 5 1 2 4 5 4 4 4 4 3 4 5 6 6 6 7 7 5 3 4 3 3 5 3 2 4 3 2 5 4 2 4 5 4 3 6 11 15 15 10 9 9 7 6 6 5 5
30 30 31 31 30 30 29 27 27 27 24 23 20 17 21 19 7 2 3 4 4 6 3 3 7 9 10 12 11 9 9 9 9 7 4 4 6 7 6 4 2 1 3 2 3 3 2 3 3 4 5 5 5 5 5 6 7 8 4 4 6 5 4 3 2 3 2 1 4 3 5 4 1 4 5 6 7 8 11 11 10 9 7 5 5 6 6
29 30 30 30 29 28 28 26 25 25 23 21 21 20 23 22 10 1 2 4 4 5 3 3 8 10 10 11 10 8 9 10 9 8 7 6 6 7 6 5 5 5 2 3 4 4 3 2 3 3 4 4 4 4 5 5 6 6 8 6 6 7 4 3 2 2 3 4 2 1 2 2 3 4 3 2 2 2 4 6 4 6 6 4 4 6 7
28 29 29 30 29 28 28 26 24 24 23 20 21 23 27 27 16 4 0 3 3 4 6 4 5 7 7 8 8 7 7 7 6 5 6 6 5 5 7 9 10 7 3 4 3 3 3 2 3 2 2 2 1 2 3 2 1 1 4 4 3 6 4 4 5 3 3 5 2 1 2 4 3 4 5 3 3 3 4 6 3 4 5 4 4 5 7
28 28 29 29 29 27 27 26 24 23 22 20 21 24 28 30 24 11 1 3 4 3 4 4 4 4 4 4 6 6 4 4 5 4 5 6 7 7 9 10 12 10 6 3 2 3 3 2 1 1 1 1 2 2 2 2 3 4 7 7 7 5 2 4 4 2 3 5 3 3 3 4 4 5 7 7 5 1 4 6 3 4 5 4 4 5 6
27 28 29 29 28 27 26 25 22 22 22 20 19 22 26 29 28 18 4 2 5 2 4 5 4 4 4 3 5 5 3 3 3 2 2 4 4 7 9 9 9 10 7 4 3 3 4 2 1 1 1 2 1 1 2 3 3 5 6 7 9 7 4 3 4 2 2 4 3 1 1 1 3 5 7 8 6 3 6 3 2 3 5 5 4 6 6
26 27 27 28 27 26 25 23 21 21 22 19 16 18 23 27 28 20 7 2 4 2 4 6 6 4 3 3 2 3 2 3 3 2 2 3 3 5 7 6 6 7 6 4 3 3 4 3 2 2 1 3 2 1 1 2 2 4 4 4 5 4 3 3 4 3 2 3 3 2 1 1 3 5 7 8 5 5 5 4 5 1 4 4 5 6 5
25 25 26 27 27 26 24 21 19 20 22 21 17 15 20 25 27 22 10 2 4 2 5 6 7 4 3 3 2 3 3 2 2 2 2 3 4 5 5 3 3 4 4 4 3 3 3 3 2 1 2 3 3 2 2 2 2 3 3 3 3 3 3 3 2 2 2 2 3 2 1 1 3 5 6 5 3 3 2 4 3 1 3 4 5 5 5
23 24 25 26 26 25 23 20 18 18 21 22 19 15 18 23 25 22 11 1 2 1 4 3 6 4 2 4 4 2 3 3 3 3 2 2 4 4 4 3 3 4 4 4 3 2 2 2 3 2 2 3 2 2 2 2 3 5 4 2 2 2 1 2 2 1 2 3 3 2 1 2 3 3 4 5 3 1 2 1 3 4 4 5 5 4 4
22 22 24 25 25 24 22 18 16 17 18 21 20 17 18 22 25 21 11 1 4 3 3 4 5 5 5 7 7 6 5 3 3 2 1 3 4 3 4 1 3 2 2 2 2 1 2 1 2 2 2 2 2 3 3 2 4 7 5 2 2 3 1 1 1 1 2 3 2 0 1 2 3 3 4 3 2 2 3 4 3 3 4 3 3 3 3
21 22 22 23 24 23 21 18 15 15 16 19 20 20 19 23 26 21 10 3 3 1 3 5 3 3 7 8 8 9 8 7 6 5 3 1 3 3 3 1 2 1 0 2 3 1 2 1 1 1 2 2 3 3 3 2 2 5 6 3 2 3 1 2 2 2 3 3 1 2 1 3 6 6 5 3 3 3 5 5 3 2 2 1 2 3 4
20 21 21 22 23 22 20 17 15 14 14 16 20 21 19 22 26 20 9 5 2 2 3 4 2 3 5 5 5 7 7 7 8 8 7 4 2 2 2 2 2 1 1 2 3 1 0 1 1 1 2 2 2 3 4 3 1 2 3 2 1 2 2 3 4 3 3 4 2 2 3 5 5 4 3 4 4 3 3 5 3 2 2 1 2 1 2
19 20 20 21 22 21 19 17 14 13 13 14 17 19 17 19 24 20 10 6 4 2 4 6 4 3 2 3 4 5 6 5 6 6 8 9 5 1 2 1 0 2 3 2 2 2 1 1 1 2 2 1 2 3 3 2 1 0 2 2 3 3 3 4 3 2 2 3 4 4 3 4 4 5 4 5 6 5 5 5 4 2 2 1 1 0 1
18 19 19 20 21 19 17 15 13 11 12 12 13 16 16 18 22 19 9 5 3 2 2 3 4 6 6 2 3 4 5 4 4 5 9 11 9 5 1 2 1 1 1 2 1 4 3 1 1 3 1 0 1 2 1 1 1 0 2 1 2 2 2 3 3 3 3 3 2 4 1 2 4 5 5 5 6 5 4 3 2 2 3 3 4 4 3
18 17 18 20 20 18 15 13 12 10 10 11 12 14 14 16 20 18 11 5 2 2 3 2 5 10 13 6 3 3 3 5 5 7 8 8 7 6 4 2 1 1 1 1 3 4 2 1 2 2 1 1 2 1 1 0 1 1 1 1 2 1 3 1 2 4 3 0 2 4 3 2 4 5 4 2 2 3 3 3 3 4 5 5 6 7 7
18 16 18 19 19 17 14 12 10 10 10 11 11 9 8 12 17 17 12 8 3 1 2 1 4 10 14 9 6 5 2 7 6 7 7 6 4 4 3 3 2 3 3 3 2 2 3 3 2 1 2 0 1 1 1 1 1 2 1 3 2 3 3 1 3 4 2 2 3 1 0 2 3 3 3 2 1 3 4 5 4 5 5 5 6 8 9
18 17 18 18 18 16 13 11 10 10 11 13 10 4 3 7 14 16 12 9 5 2 2 2 4 8 10 7 6 7 1 5 6 6 4 4 4 5 4 3 3 1 2 2 2 2 2 2 1 1 1 0 2 2 2 2 3 3 2 3 2 3 2 2 4 3 3 5 5 3 3 2 5 5 4 4 3 4 5 5 5 5 5 5 5 6 7
17 18 18 18 18 16 13 12 11 9 11 14 8 3 3 1 8 14 13 9 6 3 1 1 3 3 4 6 7 6 4 7 6 3 1 1 3 6 4 1 3 3 2 3 2 1 1 2 2 1 1 2 2 1 2 2 2 2 1 1 2 3 3 4 6 4 3 4 3 3 4 2 4 4 3 4 5 5 4 4 4 4 5 6 6 5 5
17 18 18 17 17 15 12 12 11 9 11 12 7 4 3 0 4 12 13 8 5 3 2 1 1 2 4 6 6 4 3 6 4 2 1 2 2 3 2 1 2 3 3 2 2 1 1 2 1 1 2 2 4 2 0 1 1 0 1 2 3 4 4 4 5 4 2 1 1 3 3 1 3 2 3 5 7 6 4 5 5 5 7 8 6 5 7
17 18 18 17 15 14 12 10 10 9 11 11 6 3 2 1 4 11 13 8 4 2 2 1 1 3 4 3 3 3 3 1 1 2 2 2 4 5 4 3 1 2 2 1 1 1 1 1 0 1 2 1 4 2 2 2 1 0 2 3 3 4 5 4 4 5 4 2 1 3 2 2 2 2 3 5 7 8 6 5 7 8 8 8 8 7 9
17 17 17 16 14 12 10 9 9 9 10 10 6 1 2 3 6 11 12 8 4 1 3 2 2 1 2 3 3 3 4 3 2 3 2 2 2 3 4 2 0 1 2 3 1 1 2 2 2 1 2 1 3 2 2 3 3 4 4 4 3 4 5 5 4 4 4 3 4 4 4 4 2 1 1 2 7 10 8 6 9 9 8 8 9 9 9
18 17 16 14 13 11 9 8 9 9 9 9 7 6 5 4 7 10 10 8 4 1 3 2 1 1 2 3 2 3 6 4 3 3 2 2 1 1 2 2 1 1 2 2 1 2 1 2 2 1 2 1 3 3 1 2 5 6 6 5 4 4 5 5 4 4 3 2 3 2 2 4 3 1 4 6 8 9 8 8 9 9 7 6 6 6 8
18 17 15 14 12 10 9 9 9 10 9 8 6 6 5 6 8 9 8 5 2 0 1 2 1 2 3 2 1 2 4 2 1 1 2 3 1 2 1 3 2 1 1 0 1 1 1 1 2 2 2 1 2 2 1 3 5 6 6 5 4 3 4 4 4 3 2 1 2 2 2 2 2 4 6 6 5 6 7 8 8 6 4 4 4 5 6
17 16 14 13 12 12 11 11 10 8 6 6 6 7 8 10 10 8 5 2 1 2 1 0 1 1 2 2 2 3 2 2 1 2 2 2 1 1 1 1 2 1 2 1 1 0 1 2 3 2 2 0 1 1 3 5 6 5 5 4 3 3 4 3 1 1 0 2 4 3 4 5 5 4 4 4 3 4 5 5 4 4 3 3 3 5 5
16 15 14 12 12 11 9 5 3 2 3 7 11 12 12 12 10 5 3 3 1 1 1 1 1 1 1 1 2 3 2 2 2 3 1 1 2 1 2 2 1 2 1 1 1 1 2 1 2 0 2 1 2 4 5 7 7 6 6 5 4 4 4 3 4 2 1 4 5 3 4 5 4 2 2 3 2 4 5 3 3 3 3 3 4 4 5
15 14 12 10 8 6 3 2 2 4 9 13 14 12 10 8 5 2 2 2 2 3 2 2 1 3 2 2 2 2 2 1 2 3 2 1 2 1 1 2 1 2 2 2 1 3 2 0 2 1 3 3 4 4 4 7 7 6 6 5 4 4 5 4 4 4 4 4 4 3 3 3 3 2 3 3 2 3 4 2 0 0 1 3 4 5 6
14 11 8 7 5 2 1 2 4 8 14 15 11 7 5 2 1 0 1 1 1 2 1 2 2 3 1 1 2 1 0 1 2 2 1 1 1 2 1 1 1 1 1 2 3 2 1 2 1 2 3 3 2 4 4 5 6 5 6 6 5 4 5 4 4 6 4 1 1 1 2 3 2 2 3 4 3 3 3 2 1 1 3 4 5 6 8
12 8 7 6 3 0 3 7 10 12 14 11 4 1 1 1 2 1 2 0 1 1 1 2 3 3 3 2 3 3 1 2 3 2 1 1 1 1 1 1 1 0 1 2 3 1 2 2 1 1 1 2 2 4 5 5 5 5 5 5 5 6 6 5 5 5 5 4 5 4 4 4 3 3 4 4 3 3 3 2 2 3 5 6 7 7 8
12 9 5 3 2 5 11 14 13 10 7 4 1 1 1 1 0 1 1 0 0 1 2 2 3 2 3 4 2 2 0 2 1 1 1 2 1 0 1 0 1 0 1 2 3 1 2 1 1 1 1 4 4 5 4 5 5 5 5 6 7 8 9 7 6 7 8 7 6 5 5 5 6 6 5 5 4 3 3 4 5 6 7 8 9 9 9
12 8 4 4 9 15 18 15 8 3 1 1 1 1 1 1 2 1 0 0 1 2 2 1 1 1 0 3 3 1 1 1 2 2 1 2 2 1 1 1 1 1 0 3 3 1 2 0 2 2 4 5 5 4 4 5 5 4 4 6 8 8 9 9 8 9 9 7 5 6 7 8 8 8 7 7 5 4 5 6 7 7 8 9 10 11 13
11 10 10 12 14 14 11 6 2 0 1 1 1 1 0 1 1 1 0 1 2 2 1 1 2 2 2 2 3 2 1 1 0 2 2 1 2 0 1 1 1 1 2 4 1 2 1 0 2 4 5 5 5 5 5 5 5 4 5 7 8 8 9 9 8 6 7 8 7 8 9 9 9 8 7 6 5 6 8 8 8 8 8 9 11 12 14
9 6 6 8 8 5 3 2 0 1 1 1 1 1 2 2 1 1 2 2 1 0 1 1 1 1 0 1 1 1 1 1 1 2 1 1 1 0 1 1 0 1 3 2 1 2 1 2 3 4 5 4 5 5 5 5 5 4 5 8 9 9 10 10 9 7 7 8 9 10 9 8 7 5 4 3 4 6 8 9 10 11 11 11 11 10 11
6 1 1 2 2 1 1 1 0 1 1 0 1 1 1 2 2 2 3 2 1 1 1 1 2 2 0 0 0 1 1 1 2 1 0 1 1 1 1 1 2 2 1 1 1 1 3 3 3 4 4 3 4 5 5 5 5 5 5 6 7 9 10 10 8 8 7 7 9 11 9 6 5 4 3 3 5 7 9 10 9 9 9 8 8 7 10
5 2 1 2 2 1 0 1 1 0 1 1 2 2 1 2 3 3 3 2 0 1 1 1 3 3 1 1 1 1 0 0 1 0 1 0 1 1 1 3 2 1 1 1 1 2 2 3 4 4 4 5 5 5 5 6 6 5 5 4 5 7 9 8 7 7 8 9 11 11 9 6 5 4 4 5 6 8 8 5 3 2 3 4 6 7 9
2 0 1 2 2 2 0 0 1 1 1 2 2 1 1 3 4 5 3 1 2 2 2 2 3 3 1 1 1 0 1 1 1 1 1 2 1 2 2 1 0 1 1 1 2 2 3 5 5 4 5 6 6 6 6 6 5 4 5 5 5 7 9 10 9 9 9 11 12 11 9 8 8 7 6 6 7 8 6 3 0 2 2 4 6 7 8
1 1 1 1 1 1 0 1 2 2 2 1 1 2 4 4 4 4 2 0 2 2 2 1 1 1 0 0 0 0 0 1 1 1 0 2 1 2 1 1 0 1 1 1 3 4 4 4 4 5 6 7 6 6 5 4 4 4 5 6 6 7 8 10 10 10 12 13 12 10 9 9 10 10 9 8 8 7 5 3 1 1 1 2 4 5 7
1 1 1 1 1 1 2 2 2 2 2 2 2 4 4 3 3 4 3 1 2 2 2 1 1 1 1 0 1 1 1 0 0 1 0 1 1 1 1 0 2 2 2 3 4 5 4 4 5 5 6 5 5 5 5 5 5 6 7 7 7 8 9 9 10 12 14 15 13 11 11 11 11 10 10 10 9 6 5 4 2 1 0 0 2 4 7
1 1 1 1 1 2 3 2 3 4 4 3 3 4 4 4 4 5 4 0 2 2 2 2 2 1 1 1 1 0 1 1 1 1 1 1 1 0 1 1 2 2 3 4 4 4 4 5 4 3 4 5 5 5 6 6 5 5 8 9 10 11 12 11 11 13 16 16 15 14 13 12 11 11 11 10 9 8 7 5 4 3 2 1 2 4 5
2 1 1 2 1 3 3 2 2 4 4 4 3 3 4 4 5 5 3 0 1 1 1 1 2 1 0 0 1 0 2 2 1 1 2 2 2 2 2 2 3 4 4 4 4 5 5 4 3 4 5 6 6 6 6 5 5 6 9 12 13 14 15 14 13 14 15 16 17 16 14 12 13 12 10 10 10 11 9 7 5 5 4 3 2 3 4
2 2 2 3 3 3 2 0 2 4 4 4 4 4 4 3 4 4 3 1 2 2 1 1 1 1 0 1 1 1 2 1 1 1 2 2 2 2 2 4 5 5 4 4 4 5 4 3 3 4 5 6 6 6 6 7 8 9 9 12 14 15 16 15 15 14 15 16 16 16 15 14 15 12 8 7 8 11 11 8 7 7 7 6 5 4 4
2 2 2 3 3 4 3 2 3 4 4 5 4 4 3 3 5 5 3 1 2 1 2 2 2 1 1 2 2 1 0 0 0 2 3 2 2 3 4 5 5 4 4 4 4 3 3 4 4 5 5 6 7 8 8 8 9 10 9 12 15 16 15 15 15 15 15 15 15 15 14 14 14 12 8 5 4 7 9 10 10 9 9 8 7 6 5
Wind_Direction
2 0 1 5 8 8 6 6 6 6 2 353 351 353 334 84 289 282 342 4 70 129 53 286 327 279 222 234 243 235 254 265 274 285 283 274 245 231 256 270 67 31 357 20 37 34 43 341 20 124 121 186 186 169 77 78 77 81 90 292 304 75 81 65 328 294 303 309 332 61 33 41 52 6 18 36 0 128 138 171 175 129 139 142 103 116 257
3 2 2 6 10 9 8 8 7 9 7 356 346 351 313 298 275 282 349 5 23 121 114 227 239 265 265 286 266 254 258 252 256 271 287 292 263 182 33 5 57 36 6 44 55 34 81 28 10 80 121 202 197 160 122 104 80 74 170 174 114 59 97 92 55 4 349 345 352 5 6 28 45 316 350 23 13 24 48 94 85 90 186 149 122 174 244
4 3 4 8 11 10 10 10 8 10 9 360 349 323 277 326 305 270 340 4 26 127 181 165 184 282 302 294 275 276 274 255 254 255 297 344 5 67 24 10 45 41 20 48 42 28 76 73 6 17 45 22 22 113 102 100 88 90 143 134 110 112 131 111 108 121 143 283 289 304 329 345 346 325 346 14 33 36 44 60 63 90 199 111 116 184 240
6 5 6 10 13 12 11 11 11 12 11 5 355 328 341 359 6 324 326 0 26 331 251 70 44 327 327 303 284 289 295 291 310 4 34 17 38 51 18 17 49 36 27 54 33 15 35 69 43 19 8 4 353 12 61 83 88 89 92 88 87 91 83 102 126 148 173 186 217 241 297 7 335 332 349 6 21 44 82 85 71 174 146 70 181 182 137
7 6 7 11 13 14 14 13 13 16 18 18 12 351 21 44 20 7 334 325 356 347 351 22 7 326 356 6 328 348 342 325 354 19 25 15 35 59 28 24 43 23 27 70 32 356 24 51 41 5 353 350 335 357 41 62 66 78 74 61 85 86 46 87 119 138 179 184 214 306 41 59 357 346 358 9 21 47 72 68 2 160 92 3 262 161 116
8 7 7 9 12 15 16 14 15 19 25 35 53 48 14 42 54 0 352 325 355 348 330 331 336 350 23 46 14 13 18 25 16 354 13 23 21 53 41 29 38 31 35 87 43 354 29 43 16 348 352 352 348 355 12 21 29 53 38 18 86 102 112 206 117 101 122 119 49 33 57 69 52 36 15 6 40 70 88 79 179 131 117 211 233 114 103
9 8 7 9 13 17 17 16 17 18 29 43 55 55 351 30 24 334 357 27 253 263 294 303 339 17 19 27 31 28 30 37 29 4 15 24 14 39 65 40 40 40 42 77 63 15 38 33 353 357 359 346 358 11 359 352 5 38 41 12 68 100 150 210 106 78 32 34 48 52 53 47 46 44 3 251 99 103 115 115 71 92 95 157 139 91 72
10 9 8 8 12 18 18 19 18 18 27 42 52 51 13 31 343 330 358 9 299 294 323 330 29 31 18 19 28 33 33 33 37 33 37 40 7 27 67 59 46 48 49 63 71 55 80 142 265 352 357 346 2 22 9 341 348 13 37 0 18 77 164 226 86 69 341 355 53 59 59 65 47 6 341 33 93 77 72 41 36 73 77 54 76 78 53
10 10 10 8 11 17 19 21 21 21 28 37 45 33 14 347 262 323 31 12 348 357 1 1 33 29 13 10 13 31 37 28 39 42 37 53 49 37 96 80 48 43 44 46 41 4 350 292 266 250 256 290 308 314 317 0 348 351 22 9 16 76 113 348 67 76 292 313 56 48 50 64 47 9 351 358 44 68 59 29 30 104 132 82 62 71 341
11 10 10 8 10 16 19 22 23 24 30 35 35 7 7 357 317 345 87 78 6 2 16 20 36 29 358 355 7 32 40 28 50 59 20 28 48 60 101 94 68 49 37 24 340 300 290 283 285 270 244 249 254 253 266 285 297 296 35 44 38 106 109 87 90 103 273 289 72 64 48 42 13 320 313 314 63 87 67 27 14 39 117 110 92 141 241
10 10 10 9 10 15 19 22 24 26 29 31 29 2 2 359 328 336 56 74 4 345 30 33 30 13 357 2 15 27 32 27 37 65 29 4 16 41 70 83 87 70 33 313 276 275 273 271 275 276 278 281 278 274 279 283 264 218 146 94 329 106 112 141 132 119 247 276 56 61 45 37 255 263 283 258 115 94 79 46 16 22 55 93 119 140 322
9 9 10 9 9 14 18 21 25 27 28 28 26 16 7 2 336 340 58 76 7 356 42 39 19 8 8 15 20 17 21 23 17 33 77 16 4 24 52 64 68 54 260 264 288 303 306 308 307 310 320 308 295 288 282 282 279 255 179 145 161 139 127 149 122 120 187 296 53 61 256 219 215 268 8 85 104 96 86 64 31 24 33 48 53 29 359
8 8 9 9 8 12 16 20 24 25 27 26 24 21 15 12 14 64 71 86 36 7 4 8 11 16 15 15 14 7 10 15 12 18 41 37 34 39 35 38 44 273 255 287 340 14 34 359 347 332 322 329 330 306 274 260 267 266 243 166 147 147 150 158 142 126 146 93 88 149 230 234 265 341 16 69 81 77 75 58 27 12 14 27 33 11 353
7 6 8 8 8 10 15 18 21 23 25 24 24 24 20 16 17 30 60 85 66 9 2 9 2 7 14 11 7 7 9 9 10 16 20 26 42 45 25 358 318 289 310 22 16 44 65 19 11 3 338 358 13 326 281 252 239 248 258 235 167 148 146 151 180 182 136 144 159 182 239 275 356 347 343 36 2 343 103 95 45 6 4 13 28 17 3
5 5 6 7 7 9 14 17 19 21 23 26 30 32 25 17 13 0 54 106 97 24 21 21 341 344 3 7 7 16 16 5 357 358 7 15 20 17 4 352 339 330 7 44 22 33 57 50 48 30 342 8 39 279 300 301 264 334 318 289 165 151 164 168 185 200 110 118 142 129 189 220 244 285 288 287 282 250 151 115 68 350 345 0 37 30 8
4 4 4 6 6 8 12 16 18 20 22 26 33 35 29 22 18 14 8 116 99 49 350 341 344 356 0 357 7 21 26 3 351 346 356 3 2 355 348 347 355 5 24 38 25 42 56 61 101 129 211 236 238 263 331 359 330 353 10 20 43 60 95 128 140 158 117 120 144 169 185 214 240 272 297 307 300 265 114 97 48 328 323 343 38 40 13
3 3 3 4 5 6 10 15 18 22 23 25 32 34 30 25 21 18 18 83 78 76 301 329 21 31 17 4 359 9 15 354 1 36 357 332 339 351 345 341 357 14 27 35 27 36 44 26 25 68 316 309 330 324 353 13 342 333 351 14 27 29 29 63 81 90 126 123 124 148 154 217 271 278 294 301 308 30 92 123 259 313 324 334 47 55 27
3 2 2 3 5 6 9 13 18 23 24 26 33 35 31 26 22 22 30 73 72 60 318 358 52 58 26 35 359 352 15 353 0 47 341 315 339 352 338 335 354 2 15 46 45 30 38 21 8 62 16 325 354 62 3 17 0 330 348 17 24 15 10 42 73 65 60 94 102 101 119 287 286 286 291 298 331 49 92 196 224 275 342 0 60 61 37
2 2 2 2 3 5 9 13 17 23 24 24 28 32 31 27 22 22 27 60 84 53 319 3 58 65 20 53 47 4 14 14 33 56 18 334 329 326 319 333 11 359 1 44 51 34 41 12 332 73 66 341 345 56 29 2 344 336 6 46 35 9 2 19 44 36 28 81 110 97 42 270 255 276 305 336 44 86 181 212 198 90 41 43 55 47 32
1 2 2 2 2 4 9 13 17 22 24 23 22 24 29 28 22 19 19 45 107 42 307 3 68 72 40 69 83 52 21 25 50 76 77 290 299 340 13 0 350 2 14 34 38 25 36 4 319 12 55 332 343 51 9 321 353 5 20 64 45 14 31 30 16 3 38 62 75 87 106 268 273 297 345 23 64 177 215 110 72 59 54 50 44 34 27
359 1 2 1 1 4 10 13 17 22 22 21 20 19 23 25 22 18 17 100 128 84 337 0 50 74 88 90 95 101 98 86 84 98 137 277 307 40 86 284 303 353 19 34 50 8 8 348 314 349 21 325 355 37 359 333 359 357 4 77 54 7 50 93 8 342 62 69 58 129 214 297 347 41 68 64 58 51 64 77 64 37 42 49 38 10 356
358 360 2 2 0 4 11 15 16 19 19 18 20 19 17 17 17 19 27 87 134 172 287 314 339 105 113 98 74 72 92 113 110 101 101 22 350 49 103 90 348 1 323 79 76 13 345 4 343 13 26 354 0 10 9 61 59 339 349 53 55 353 23 103 69 53 85 107 169 238 265 16 38 65 91 90 69 73 89 105 104 48 21 47 50 0 332
357 359 0 0 360 4 12 16 16 18 18 18 20 20 16 13 12 15 33 64 58 284 317 346 19 108 114 115 86 72 90 101 89 83 87 81 19 8 50 48 3 340 7 101 125 150 235 224 221 79 48 2 19 27 16 45 90 330 350 38 17 341 25 80 87 100 93 71 26 347 42 51 45 55 80 74 57 55 76 86 76 29 330 6 83 30 313
355 356 358 360 1 5 12 15 16 16 16 19 21 20 22 20 14 13 27 50 42 14 4 16 46 69 83 149 137 125 134 111 72 73 80 78 82 30 344 323 219 31 359 295 194 134 97 250 246 79 72 18 64 73 46 17 1 20 28 2 328 343 35 69 80 113 105 57 349 340 49 74 46 26 31 40 37 32 47 61 54 22 4 7 18 316 284
350 353 357 1 3 7 11 13 15 17 15 16 18 20 25 26 19 21 36 43 36 74 38 345 335 2 14 105 126 118 145 119 69 97 99 84 95 125 171 247 214 64 326 292 52 73 57 348 39 70 82 123 84 83 79 1 266 129 67 355 294 327 46 77 66 55 105 142 261 291 273 119 72 48 28 26 36 35 36 54 56 24 7 342 337 345 343
349 351 356 0 3 6 8 8 13 17 14 8 6 13 25 28 22 25 37 35 32 92 58 295 288 345 1 7 14 29 143 143 86 105 120 102 101 124 140 169 249 319 340 39 64 87 102 64 70 88 109 118 102 119 166 289 310 46 54 287 262 16 38 75 85 53 58 123 304 320 316 336 32 44 32 28 77 64 26 13 11 9 6 357 354 356 353
355 353 353 355 358 1 2 2 2 3 5 3 359 4 28 38 30 28 30 30 38 105 14 314 266 323 341 340 345 2 158 157 104 99 136 148 139 145 147 132 92 8 15 23 20 79 87 45 40 152 195 238 53 64 215 265 30 67 23 304 319 59 50 41 83 71 41 282 282 305 4 304 319 340 341 338 66 61 19 357 2 17 18 11 4 356 350
354 353 351 352 355 357 357 354 349 348 352 353 354 9 59 45 31 28 28 33 50 139 188 253 274 309 326 324 335 357 45 148 110 98 137 160 175 206 213 137 109 72 48 48 12 31 55 7 302 207 202 82 36 4 326 353 45 61 17 335 21 92 120 131 120 136 199 228 228 193 147 212 271 291 322 344 20 35 16 5 17 28 22 18 18 7 356
346 346 346 348 352 354 354 351 346 344 346 346 352 68 121 65 20 20 23 30 43 76 142 299 304 310 312 301 314 355 88 139 148 145 109 72 202 217 224 162 153 168 132 106 90 48 312 264 233 214 201 130 117 343 335 25 56 49 4 4 77 104 122 131 137 159 215 238 219 158 135 201 273 292 324 345 13 39 38 33 40 34 21 27 32 23 11
337 339 341 346 350 351 352 352 347 343 347 350 3 64 72 316 352 7 12 23 36 47 74 73 332 310 307 296 299 333 87 130 154 198 343 356 295 273 315 330 190 151 86 73 109 129 257 280 318 314 299 101 110 116 339 107 116 89 123 140 126 106 101 119 130 132 148 220 188 134 132 229 281 300 334 356 22 49 62 47 40 35 33 37 38 24 12
334 337 339 341 344 346 349 351 346 341 345 352 10 59 64 326 334 355 1 6 13 43 84 104 277 301 316 307 279 296 318 54 53 322 302 299 304 305 311 302 225 132 95 103 143 145 200 221 46 324 293 87 103 128 157 129 117 139 138 137 125 107 100 98 101 106 114 122 80 56 34 344 349 6 344 357 34 58 68 46 30 30 33 32 27 21 11
335 336 338 337 335 340 344 343 338 332 332 337 339 291 229 270 323 345 352 349 340 84 103 50 341 315 313 299 287 321 334 333 352 349 306 268 302 313 301 294 202 119 117 122 123 265 217 183 161 201 232 126 100 108 122 124 156 194 178 151 136 125 120 116 110 103 101 98 83 50 354 322 325 357 316 53 62 66 66 44 23 21 24 22 16 14 7
334 334 335 332 326 326 329 330 328 321 316 317 307 279 272 304 330 340 343 337 322 163 133 90 28 261 278 282 296 2 3 345 346 16 340 267 220 48 332 329 20 54 66 101 164 241 229 153 145 200 272 308 97 105 134 196 196 192 179 171 174 158 138 129 115 95 82 91 110 120 247 265 270 100 108 101 85 75 68 43 19 10 12 12 7 2 357
330 331 333 328 319 314 312 313 315 314 315 319 308 293 308 333 337 336 329 313 308 10 76 86 106 274 304 339 329 342 7 359 319 358 321 272 216 139 297 326 11 24 337 125 156 265 303 248 162 182 272 305 92 104 250 233 198 178 174 188 191 150 113 95 87 85 88 79 75 93 141 157 83 75 93 100 89 75 62 40 17 360 0 6 357 348 346
330 330 329 322 312 307 305 306 307 306 310 313 308 310 321 324 324 326 311 280 19 39 329 36 111 270 329 15 323 304 3 37 279 250 234 260 270 153 159 25 18 322 254 189 118 271 263 210 167 181 250 240 117 192 224 200 183 171 158 168 173 124 90 76 81 246 298 80 84 84 93 90 72 66 100 130 118 82 70 50 25 8 3 351 335 331 331
334 329 325 318 312 311 312 314 320 322 323 318 314 315 315 310 306 293 226 215 193 159 206 8 49 200 176 142 263 289 9 28 292 285 297 316 324 357 94 82 357 268 240 80 59 265 250 192 135 194 270 218 190 221 202 168 164 164 153 161 171 138 122 161 188 186 57 63 85 94 93 95 95 94 132 154 137 88 80 70 42 21 359 325 314 314 311
339 333 329 328 329 335 351 59 63 354 328 321 317 311 302 293 288 255 198 202 214 199 158 92 250 228 186 169 241 291 28 18 309 332 351 323 302 321 55 82 254 269 353 21 282 235 244 339 115 157 251 238 214 217 188 154 154 158 151 158 166 144 144 175 168 122 69 41 48 72 104 135 173 174 139 136 123 94 92 90 57 58 277 281 286 289 294
332 334 348 359 5 22 39 3 340 323 317 316 316 310 297 283 121 12 307 101 175 214 140 117 244 253 152 113 253 267 64 1 347 7 343 285 308 335 19 75 208 254 1 312 257 214 59 356 108 159 255 259 190 177 178 159 154 153 148 154 169 162 157 163 137 112 97 34 357 129 159 188 212 168 132 139 148 137 141 162 214 220 238 260 274 283 292
334 343 2 11 19 202 297 320 318 311 311 316 326 321 314 33 70 328 292 115 118 270 215 177 226 226 165 172 264 278 90 67 26 7 314 293 309 313 1 15 309 2 39 302 283 356 40 318 318 81 305 283 188 181 186 159 142 152 158 157 161 155 148 153 152 140 151 187 203 193 186 190 183 147 136 156 175 167 163 189 243 251 252 265 279 284 289
7 9 5 0 327 302 313 322 320 311 311 330 22 72 16 21 129 225 235 242 331 249 203 191 222 222 161 155 217 277 11 97 118 195 242 272 267 200 74 2 273 31 57 285 284 46 94 279 315 59 229 246 228 206 189 149 145 173 177 152 146 146 146 152 156 150 150 163 177 173 160 157 156 151 153 165 172 176 204 238 254 260 266 281 289 289 293
2 360 337 304 305 308 314 321 325 316 332 36 22 17 33 275 266 255 147 319 278 250 212 149 90 307 238 139 150 214 265 222 164 138 125 289 291 64 84 260 265 65 115 253 258 86 99 238 298 274 238 229 214 194 176 156 160 175 161 142 143 144 140 136 137 142 147 153 159 152 143 142 150 161 168 170 171 190 225 243 256 268 279 291 298 301 307
325 312 301 301 304 307 313 326 351 67 56 43 14 336 262 243 277 320 325 227 231 243 253 123 145 200 220 165 148 175 225 236 147 87 80 289 277 134 147 259 11 67 236 245 255 56 61 278 283 272 251 220 190 178 171 165 166 163 152 151 153 147 139 136 137 146 154 155 157 155 148 146 156 169 175 179 192 212 228 243 260 273 285 298 304 309 320
322 296 289 301 305 305 312 320 300 100 57 51 52 347 329 319 310 294 276 264 236 212 253 194 155 154 107 95 105 116 129 134 95 85 110 246 265 72 48 354 17 212 238 247 65 58 247 226 235 252 244 206 184 185 177 166 166 168 166 164 160 156 155 156 154 154 155 154 156 156 152 154 168 183 194 210 226 236 245 256 269 276 285 299 306 315 339
352 349 228 305 307 286 319 319 293 119 73 24 131 123 313 307 305 293 283 282 308 330 278 186 125 105 133 202 116 66 78 70 53 57 82 270 329 64 66 257 238 234 260 9 45 247 236 226 237 248 234 193 190 196 178 162 165 171 172 173 169 164 164 163 158 156 156 154 155 157 161 174 192 208 231 248 261 272 274 276 280 283 288 306 322 336 356
1 21 45 6 329 310 33 347 330 339 224 217 181 167 221 270 281 283 269 247 202 41 24 90 102 105 168 258 55 81 178 51 52 67 215 28 30 15 230 229 235 282 5 343 281 274 267 265 268 255 214 191 195 197 188 184 182 165 153 168 187 177 168 167 171 172 169 163 162 166 175 190 203 217 236 246 263 281 284 283 300 322 332 357 3 0 6
345 289 68 30 319 302 69 64 301 297 211 203 196 204 280 277 271 272 268 221 154 143 151 137 112 110 155 274 323 89 144 103 90 220 169 96 95 244 230 179 67 15 7 305 272 257 246 249 253 235 210 204 204 203 203 204 189 155 145 169 197 193 181 179 184 187 180 174 176 181 190 200 211 225 235 243 262 277 276 259 89 35 30 25 14 10 19
319 318 47 67 296 301 89 186 225 235 232 241 265 283 289 289 288 294 307 300 163 174 170 135 97 97 169 174 17 298 129 98 126 256 107 100 179 258 347 70 176 229 187 227 251 245 239 249 251 228 214 210 208 212 223 229 214 192 185 188 196 197 191 188 189 188 183 181 185 195 204 212 222 230 235 247 263 265 242 206 192 31 45 42 30 30 35
327 349 46 130 241 252 228 237 290 293 268 268 291 290 297 323 328 309 301 303 132 146 146 114 71 357 320 17 105 205 255 103 169 245 205 115 145 297 1 20 258 246 188 199 225 233 238 253 253 230 212 206 202 206 223 238 230 205 189 186 193 198 197 196 194 190 186 186 192 202 211 219 229 235 241 251 256 239 201 190 205 224 211 54 64 61 50
257 277 213 200 274 264 243 266 331 318 289 290 316 321 332 342 319 290 282 322 98 135 166 140 115 102 292 306 64 116 241 220 174 219 218 134 132 202 208 207 250 271 252 228 223 227 240 252 247 208 191 199 209 211 217 231 233 205 186 188 195 195 194 198 200 194 189 189 195 203 213 224 233 238 246 253 245 222 203 203 211 203 197 198 128 95 72
220 233 210 197 248 278 282 314 320 291 292 319 335 322 321 322 305 290 287 346 79 62 39 60 84 97 263 301 46 325 256 233 174 175 212 208 189 186 200 213 223 230 236 233 227 232 243 248 224 184 187 198 208 214 218 227 235 220 201 195 194 192 193 200 204 199 194 194 198 204 214 228 235 238 250 261 246 222 207 205 215 214 208 197 167 125 99
215 240 234 212 214 231 247 230 226 251 277 301 299 289 298 301 282 277 289 36 79 64 24 253 206 147 145 189 200 230 249 234 127 169 217 223 191 173 206 235 234 225 229 246 249 248 247 234 204 200 207 208 209 216 220 224 235 238 219 197 190 191 194 199 202 202 201 202 204 207 217 232 239 242 256 269 242 217 206 207 217 220 212 201 192 175 137
218 225 250 249 229 219 230 245 243 246 258 264 263 268 282 274 265 273 293 46 111 166 231 222 188 162 196 210 208 205 178 72 163 218 227 232 214 191 202 221 228 226 239 260 265 257 245 225 201 199 207 207 208 218 223 227 240 250 233 197 186 189 193 196 202 206 205 205 210 217 225 233 239 242 252 268 244 217 214 219 220 214 212 214 212 197 169